This is the latest recevied weather packets stored in our database for station/object W8KVG. If no packets are shown the sender has not sent any weather packets the latest 10 day(s).
| Time | Temp. | Humidity | Pressure | Rain* | Wind** | Luminosity | Snow |
|---|---|---|---|---|---|---|---|
| 1778063917 | 13.33° C | 99% | 1004.8 hPa | 3.56 mm | - | 0 W/m² | - |
| 1778063614 | 13.33° C | 99% | 1004.8 hPa | 3.56 mm | - | 0 W/m² | - |
| 1778063311 | 13.33° C | 99% | 1004.9 hPa | 4.32 mm | - | 0 W/m² | - |
| 1778063009 | 13.33° C | 99% | 1004.9 hPa | 3.56 mm | - | 0 W/m² | - |
| 1778062706 | 13.33° C | 99% | 1005 hPa | 3.56 mm | - | 0 W/m² | - |
| 1778062402 | 13.33° C | 99% | 1005 hPa | 3.05 mm | - | 0 W/m² | - |
| 1778062100 | 13.33° C | 99% | 1004.6 hPa | 3.56 mm | - | 0 W/m² | - |
| 1778061798 | 13.33° C | 99% | 1004.8 hPa | 3.05 mm | - | 0 W/m² | - |
| 1778061496 | 13.33° C | 99% | 1004.8 hPa | 2.29 mm | - | 0 W/m² | - |
| 1778061193 | 13.33° C | 99% | 1004.7 hPa | 0.51 mm | - | 0 W/m² | - |
| 1778060890 | 13.33° C | 99% | 1004.7 hPa | 0.51 mm | - | 0 W/m² | - |
| 1778060589 | 13.33° C | 99% | 1004.5 hPa | 1.27 mm | - | 0 W/m² | - |
| 1778060286 | 13.33° C | 99% | 1004.7 hPa | 1.27 mm | - | 0 W/m² | - |
| 1778059983 | 13.33° C | 99% | 1004.8 hPa | 2.29 mm | - | 0 W/m² | - |
| 1778059681 | 13.33° C | 99% | 1004.7 hPa | 3.56 mm | - | 0 W/m² | - |
| 1778059378 | 13.33° C | 99% | 1004.8 hPa | 3.05 mm | - | 0 W/m² | - |
| 1778059075 | 13.33° C | 99% | 1004.8 hPa | 2.29 mm | - | 0 W/m² | - |
| 1778058773 | 13.33° C | 99% | 1005 hPa | 2.29 mm | - | 0 W/m² | - |
| 1778058471 | 13.33° C | 99% | 1004.9 hPa | 1.78 mm | - | 0 W/m² | - |
| 1778058167 | 13.33° C | 99% | 1005.1 hPa | 2.29 mm | - | 0 W/m² | - |
| 1778057864 | 13.33° C | 99% | 1005.2 hPa | 2.29 mm | - | 0 W/m² | - |
| 1778057560 | 13.33° C | 99% | 1005.3 hPa | 2.29 mm | - | 0 W/m² | - |
| 1778057257 | 13.33° C | 99% | 1005.4 hPa | 3.05 mm | - | 0 W/m² | - |
| 1778056953 | 13.33° C | 99% | 1005.4 hPa | 3.05 mm | - | 0 W/m² | - |
| 1778056651 | 13.33° C | 99% | 1005.4 hPa | 3.05 mm | - | 0 W/m² | - |
* Rain latest hour (hover to see other rain measurements)
** Current wind speed in m/s (hover to see current wind gust speed)